DWEW6128 Weather Reports


time (UTC)temp
F
wind
direction
speed
knots
gust
knots
rain 1hr
in
rain 24hr
in
rain mn
in
humidity
%
barometer
mb
20191116005112 64 185 6.1 12.2 0.00 0.00 0.00 81 1013.7
20191116004612 64 180 7.0 12.2 0.00 0.00 0.00 81 1013.7
20191116004112 64 180 6.1 14.8 0.00 0.00 0.00 81 1013.7
20191116003612 64 213 6.1 13.0 0.00 0.00 0.00 81 1013.7
20191116003111 64 182 8.7 17.4 0.00 0.00 0.00 80 1013.7
20191116002612 64 184 7.8 12.2 0.00 0.00 0.00 80 1013.7
20191116002111 64 187 7.8 12.2 0.00 0.00 0.00 80 1013.7
20191116001612 64 178 7.8 13.0 0.00 0.00 0.00 80 1013.7
20191116001111 64 181 7.8 15.6 0.00 0.00 0.00 79 1013.7
20191116000612 64 195 8.7 14.8 0.00 0.00 0.00 79 1013.7
20191116000114 64 205 7.8 13.0 0.00 0.00 0.00 79 1013.7
20191115235612 64 195 8.7 20.0 0.00 0.00 0.00 79 1013.3
20191115235113 64 184 8.7 13.9 0.00 0.00 0.00 79 1013.3
20191115234612 64 169 7.8 13.9 0.00 0.00 0.00 79 1013.3
20191115234112 64 206 8.7 15.6 0.00 0.00 0.00 79 1013.3
20191115233612 64 196 7.8 14.8 0.00 0.00 0.00 79 1013.3
20191115233112 64 214 8.7 15.6 0.00 0.00 0.00 79 1013.3
20191115232611 64 188 11.3 17.4 0.00 0.00 0.00 78 1013.3
20191115232112 64 190 9.6 15.6 0.00 0.00 0.00 78 1013.3
20191115231612 64 172 8.7 13.9 0.00 0.00 0.00 78 1013.3
20191115231115 64 202 9.6 15.6 0.00 0.00 0.00 78 1013.3
20191115230612 64 175 9.6 14.8 0.00 0.00 0.00 78 1013.3
20191115230113 64 186 10.4 17.4 0.00 0.00 0.00 78 1013.3
20191115225611 64 191 7.8 17.4 0.00 0.00 0.00 78 1012.7
20191115225112 64 167 9.6 13.9 0.00 0.00 0.00 78 1012.7
20191115224611 64 174 8.7 17.4 0.00 0.00 0.00 78 1012.7
20191115224112 64 198 8.7 17.4 0.00 0.00 0.00 77 1012.7
20191115223612 64 210 11.3 20.0 0.00 0.00 0.00 77 1012.7
20191115223112 64 192 9.6 22.6 0.00 0.00 0.00 77 1012.7
20191115222611 64 172 10.4 22.6 0.00 0.00 0.00 77 1012.7
20191115222112 64 175 11.3 14.8 0.00 0.00 0.00 77 1012.7
20191115221611 64 199 7.8 15.6 0.00 0.00 0.00 76 1012.7
20191115221112 64 183 11.3 17.4 0.00 0.00 0.00 76 1012.7
20191115220612 64 170 8.7 14.8 0.00 0.00 0.00 75 1012.7
20191115220114 64 192 10.4 17.4 0.00 0.00 0.00 75 1012.7
20191115215612 64 188 9.6 17.4 0.00 0.00 0.00 75 1012.1
20191115215112 64 182 12.2 19.1 0.00 0.00 0.00 75 1012.1
20191115214611 64 175 7.8 17.4 0.00 0.00 0.00 75 1012.1
20191115214112 64 185 10.4 20.0 0.00 0.00 0.00 75 1012.1
20191115213611 64 167 11.3 17.4 0.00 0.00 0.00 76 1012.1
20191115213112 64 209 11.3 17.4 0.00 0.00 0.00 76 1012.1
20191115212611 64 207 8.7 15.6 0.00 0.00 0.00 76 1012.1
20191115212111 64 190 10.4 19.1 0.00 0.00 0.00 76 1012.1
20191115211612 64 184 11.3 19.1 0.00 0.00 0.00 76 1012.1
20191115211111 64 183 11.3 15.6 0.00 0.00 0.00 77 1012.1
20191115210612 65 196 11.3 21.7 0.00 0.00 0.00 77 1012.1
20191115210113 65 172 13.0 17.4 0.00 0.00 0.00 77 1011.8
20191115205612 64 179 10.4 21.7 0.00 0.00 0.00 78 1011.8
20191115205112 64 185 11.3 20.0 0.00 0.00 0.00 79 1011.8
20191115204611 64 184 11.3 17.4 0.00 0.00 0.00 80 1011.8
20191115204112 64 164 11.3 19.1 0.00 0.00 0.00 80 1011.8
20191115203612 64 180 8.7 15.6 0.00 0.00 0.00 81 1011.8
20191115203112 64 201 10.4 17.4 0.00 0.00 0.00 81 1011.8
20191115202612 64 202 8.7 19.1 0.00 0.00 0.00 82 1011.8
20191115202112 64 186 11.3 19.1 0.00 0.00 0.00 82 1011.8
20191115201612 64 205 11.3 18.2 0.00 0.00 0.00 82 1011.7
20191115201112 64 184 11.3 17.4 0.00 0.00 0.00 82 1011.7
20191115200612 64 199 7.8 17.4 0.00 0.00 0.00 82 1011.7
20191115200114 64 192 13.9 19.1 0.00 0.00 0.00 82 1011.7
20191115195612 64 182 10.4 17.4 0.00 0.00 0.00 82 1011.7
20191115195113 64 185 11.3 20.9 0.00 0.00 0.00 82 1011.6
20191115194612 64 206 12.2 20.9 0.00 0.00 0.00 82 1011.5
20191115194113 64 199 12.2 20.0 0.00 0.00 0.00 82 1011.5
20191115193611 64 170 10.4 19.1 0.00 0.00 0.00 83 1011.5
20191115193112 64 194 10.4 20.9 0.00 0.00 0.00 82 1011.5
20191115192611 64 193 13.0 21.7 0.00 0.00 0.00 83 1011.5
20191115192111 64 196 11.3 19.1 0.00 0.00 0.00 83 1011.5
20191115191611 64 183 11.3 26.9 0.00 0.00 0.00 83 1011.5
20191115191112 64 210 13.9 20.0 0.00 0.00 0.00 83 1011.5
20191115190612 64 210 11.3 17.4 0.00 0.00 0.00 83 1011.5
20191115190112 64 225 10.4 17.4 0.00 0.00 0.00 82 1011.5
20191115185612 64 209 12.2 19.1 0.00 0.00 0.00 82 1011.1
20191115185112 64 193 13.9 21.7 0.00 0.00 0.00 82 1011.1
20191115184611 64 217 12.2 19.1 0.00 0.00 0.00 82 1011.1
20191115184112 64 196 12.2 19.1 0.00 0.00 0.00 82 1011.1
20191115183611 64 215 11.3 20.0 0.00 0.00 0.00 82 1011.1
20191115183111 64 215 13.9 21.7 0.00 0.00 0.00 82 1011.1
20191115182611 64 201 13.0 26.1 0.00 0.00 0.00 81 1011.1
20191115182111 64 208 12.2 24.3 0.00 0.00 0.00 81 1011.0
20191115181611 64 218 11.3 22.6 0.00 0.00 0.00 81 1011.0
20191115181112 64 195 8.7 15.6 0.00 0.00 0.00 81 1011.0
20191115180611 63 207 11.3 17.4 0.00 0.00 0.00 81 1011.0
20191115180114 63 209 11.3 20.9 0.00 0.00 0.00 80 1011.0
20191115175611 63 195 13.9 20.9 0.00 0.00 0.00 80 1011.0
20191115175112 63 204 11.3 17.4 0.00 0.00 0.00 80 1011.0
20191115174611 63 203 9.6 18.2 0.00 0.00 0.00 80 1011.0
20191115174111 63 199 11.3 17.4 0.00 0.00 0.00 80 1010.9
20191115173611 63 215 11.3 17.4 0.00 0.00 0.00 80 1010.9
20191115173111 63 198 8.7 17.4 0.00 0.00 0.00 80 1010.9
20191115172612 63 215 11.3 17.4 0.00 0.00 0.00 80 1010.9
20191115172112 63 208 7.8 14.8 0.00 0.00 0.00 79 1010.9
20191115171611 63 186 10.4 15.6 0.00 0.00 0.00 79 1010.9
20191115171111 63 183 7.0 14.8 0.00 0.00 0.00 78 1010.9
20191115170611 63 195 8.7 15.6 0.00 0.00 0.00 78 1010.9
20191115170112 63 192 7.8 14.8 0.00 0.00 0.00 77 1010.9
20191115165611 63 180 7.8 14.8 0.00 0.00 0.00 77 1010.6
20191115165111 63 185 8.7 13.0 0.00 0.00 0.00 77 1010.6
20191115164611 63 198 7.8 13.9 0.00 0.00 0.00 76 1010.6
20191115164112 63 194 8.7 15.6 0.00 0.00 0.00 76 1010.6
20191115163611 63 181 9.6 15.6 0.00 0.00 0.00 75 1010.6
20191115163111 63 191 7.0 14.8 0.00 0.00 0.00 74 1010.6
20191115162611 63 220 7.8 13.0 0.00 0.00 0.00 72 1010.5
20191115162112 63 195 7.0 12.2 0.00 0.00 0.00 72 1010.5
20191115161611 63 187 8.7 13.0 0.00 0.00 0.00 72 1010.5
20191115161111 63 191 7.8 13.0 0.00 0.00 0.00 72 1010.5
20191115160611 63 183 6.1 12.2 0.00 0.00 0.00 72 1010.5
20191115160112 63 159 7.0 13.9 0.00 0.00 0.00 72 1010.5
20191115155612 63 191 7.8 14.8 0.00 0.00 0.00 73 1010.4
20191115155112 63 191 7.8 14.8 0.00 0.00 0.00 74 1010.4
20191115154611 63 182 7.0 12.2 0.00 0.00 0.00 73 1010.4
20191115154112 63 202 7.0 12.2 0.00 0.00 0.00 73 1010.2
20191115153611 63 184 8.7 12.2 0.00 0.00 0.00 73 1010.2
20191115153111 63 201 5.2 10.4 0.00 0.00 0.00 73 1010.2
20191115152611 63 167 6.1 14.8 0.00 0.00 0.00 73 1010.2
20191115152111 64 192 6.1 11.3 0.00 0.00 0.00 72 1010.2
20191115151611 64 158 7.0 14.8 0.00 0.00 0.00 72 1010.2
20191115151111 64 176 4.3 10.4 0.00 0.00 0.00 71 1010.1
20191115150612 64 174 6.1 11.3 0.00 0.00 0.00 70 1010.1
20191115150113 64 124 5.2 8.7 0.00 0.00 0.00 69 1010.1
20191115145611 65 163 5.2 13.0 0.00 0.00 0.00 68 1010.1
20191115145111 65 152 5.2 12.2 0.00 0.00 0.00 68 1010.1
20191115144611 65 161 6.1 11.3 0.00 0.00 0.00 67 1010.3
20191115144111 65 180 8.7 17.4 0.00 0.00 0.00 67 1010.3
20191115143611 65 191 7.8 14.8 0.00 0.00 0.00 68 1010.3
20191115143111 65 212 10.4 14.8 0.00 0.00 0.00 68 1010.3
20191115142611 65 212 5.2 14.8 0.00 0.00 0.00 69 1010.3
20191115142112 65 176 7.8 14.8 0.00 0.00 0.00 68 1010.3
20191115141611 65 199 8.7 18.2 0.00 0.00 0.00 68 1010.3
20191115141111 65 191 6.1 17.4 0.00 0.00 0.00 67 1010.3
20191115140612 65 204 8.7 13.0 0.00 0.00 0.00 67 1010.3
20191115140113 65 186 5.2 11.3 0.00 0.00 0.00 67 1010.2
20191115135611 65 203 7.0 14.8 0.00 0.00 0.00 67 1010.2
20191115135111 64 202 7.8 15.6 0.00 0.00 0.00 67 1010.2
20191115134611 65 182 8.7 15.6 0.00 0.00 0.00 69 1010.5
20191115134111 65 192 6.1 13.0 0.00 0.00 0.00 71 1010.5
20191115133611 65 176 5.2 14.8 0.00 0.00 0.00 71 1010.5
20191115133111 64 189 8.7 15.6 0.00 0.00 0.00 70 1010.5
20191115132611 64 206 8.7 17.4 0.00 0.00 0.00 70 1010.5
20191115132111 64 175 7.8 13.9 0.00 0.00 0.00 71 1010.5
20191115131611 64 180 9.6 17.4 0.00 0.00 0.00 70 1010.5
20191115131129 64 188 9.6 20.0 0.00 0.00 0.00 72 1010.5
20191115130611 64 196 10.4 19.1 0.00 0.00 0.00 71 1010.5
20191115130112 64 190 8.7 13.9 0.00 0.00 0.00 70 1010.5
20191115125611 64 205 7.0 12.2 0.00 0.00 0.00 69 1010.5
20191115125111 64 204 7.8 14.8 0.00 0.00 0.00 69 1010.5
20191115124613 64 212 7.8 14.8 0.00 0.00 0.00 70 1010.5
20191115124112 64 179 8.7 14.8 0.00 0.00 0.00 69 1010.5
20191115123611 64 192 8.7 14.8 0.00 0.00 0.00 68 1010.5
20191115123111 64 201 8.7 13.0 0.00 0.00 0.00 67 1010.5
20191115122611 64 197 11.3 18.2 0.00 0.00 0.00 66 1010.5
20191115122112 64 193 7.8 13.9 0.00 0.00 0.00 67 1010.5
20191115121611 64 143 7.0 13.9 0.00 0.00 0.00 68 1010.5
20191115121111 64 181 7.8 13.0 0.00 0.00 0.00 69 1010.5
20191115120611 64 176 11.3 17.4 0.00 0.00 0.00 68 1010.5
20191115120112 64 142 6.1 13.9 0.00 0.00 0.00 69 1010.5
20191115115611 64 193 7.0 11.3 0.00 0.00 0.00 69 1010.6
20191115115112 64 198 7.0 13.9 0.00 0.00 0.00 69 1010.6
20191115114610 64 198 8.7 15.6 0.00 0.00 0.00 68 1011.3
20191115114111 64 175 7.0 13.9 0.00 0.00 0.00 69 1011.3
20191115113611 64 164 8.7 13.9 0.00 0.00 0.00 69 1011.3
20191115113111 64 185 5.2 12.2 0.00 0.00 0.00 69 1011.3
20191115112612 64 195 8.7 17.4 0.00 0.00 0.00 67 1011.3
20191115112112 64 182 7.8 12.2 0.00 0.00 0.00 68 1011.3
20191115111611 64 176 7.8 13.0 0.00 0.00 0.00 68 1011.3
20191115111112 64 201 7.8 13.0 0.00 0.00 0.00 68 1011.3
20191115110611 64 189 8.7 14.8 0.00 0.00 0.00 68 1011.3
20191115110113 64 254 4.3 10.4 0.00 0.00 0.00 69 1011.3
20191115105611 64 163 6.1 11.3 0.00 0.00 0.00 69 1011.3
20191115105111 64 185 5.2 10.4 0.00 0.00 0.00 71 1011.3
20191115104611 63 179 5.2 10.4 0.00 0.00 0.00 73 1011.3
20191115104111 63 221 6.1 13.9 0.00 0.00 0.00 73 1011.3
20191115103611 63 194 6.1 13.9 0.00 0.00 0.00 73 1011.3
20191115103111 63 209 6.1 13.9 0.00 0.00 0.00 73 1011.3
20191115102611 63 190 7.8 10.4 0.00 0.00 0.00 72 1011.3
20191115102111 64 191 6.1 10.4 0.00 0.00 0.00 73 1011.3
20191115101611 63 197 5.2 11.3 0.00 0.00 0.00 73 1011.3
20191115101110 63 197 7.8 12.2 0.00 0.00 0.00 72 1011.3
20191115100610 63 186 7.0 10.4 0.00 0.00 0.00 72 1011.3
20191115100113 63 195 7.0 13.0 0.00 0.00 0.00 70 1011.3
20191115095611 64 192 6.1 11.3 0.00 0.00 0.00 70 1011.3
20191115095111 64 174 6.1 11.3 0.00 0.00 0.00 70 1011.3
20191115094611 63 156 6.1 13.0 0.00 0.00 0.00 70 1011.3
20191115094112 63 187 10.4 13.9 0.00 0.00 0.00 70 1011.3
20191115093610 63 201 6.1 11.3 0.00 0.00 0.00 72 1011.3
20191115093112 63 196 6.1 11.3 0.00 0.00 0.00 71 1011.3
20191115092611 63 217 7.0 13.9 0.00 0.00 0.00 72 1011.8
20191115092111 63 193 7.8 13.9 0.00 0.00 0.00 74 1011.8
20191115091611 62 167 3.5 8.7 0.00 0.00 0.00 78 1011.8
20191115091111 62 181 4.3 7.8 0.00 0.00 0.00 80 1011.8
20191115090610 61 194 4.3 10.4 0.00 0.00 0.00 81 1011.8
20191115090112 61 221 6.1 10.4 0.00 0.00 0.00 83 1011.8
20191115085611 60 183 3.5 6.1 0.00 0.00 0.00 84 1011.7
20191115085111 60 194 3.5 7.0 0.00 0.00 0.00 84 1011.7
20191115084611 60 175 2.6 5.2 0.00 0.00 0.00 84 1011.7
20191115084110 60 206 5.2 10.4 0.00 0.00 0.00 84 1011.7
20191115083611 60 191 2.6 8.7 0.00 0.00 0.00 85 1011.5
20191115083110 59 190 4.3 10.4 0.00 0.00 0.00 85 1011.6
20191115082611 59 215 6.1 11.3 0.00 0.00 0.00 85 1011.6
20191115082111 59 190 4.3 6.1 0.00 0.00 0.00 85 1011.6
20191115081610 60 182 2.6 7.0 0.00 0.00 0.00 85 1011.6
20191115081111 59 202 6.1 10.4 0.00 0.00 0.00 85 1011.6
20191115080611 59 197 4.3 7.0 0.00 0.00 0.00 86 1011.6
20191115080112 59 258 3.5 7.0 0.00 0.00 0.00 87 1011.6
20191115075611 58 195 5.2 7.8 0.00 0.00 0.00 88 1011.6
20191115075111 58 220 5.2 10.4 0.00 0.00 0.00 89 1011.6
20191115074611 58 196 2.6 6.1 0.00 0.00 0.00 90 1011.5
20191115074111 57 192 2.6 4.3 0.00 0.00 0.00 91 1011.5
20191115073611 57 207 4.3 7.0 0.00 0.00 0.00 92 1011.5
20191115073111 56 208 2.6 6.1 0.00 0.00 0.00 93 1011.5
20191115072610 55 209 2.6 5.2 0.00 0.00 0.00 92 1011.5
20191115072111 54 176 1.7 2.6 0.00 0.00 0.00 92 1011.5
20191115071611 54 96 0.9 1.7 0.00 0.00 0.00 92 1011.5
20191115071110 54 95 0.9 1.7 0.00 0.00 0.00 92 1011.5
20191115070611 54 105 0.9 2.6 0.00 0.00 0.00 92 1011.5
20191115070112 54 131 0.9 2.6 0.00 0.00 0.00 92 1011.5
20191115065611 54 113 0.9 2.6 0.00 0.00 0.00 92 1011.5
20191115065111 54 92 1.7 2.6 0.00 0.00 0.00 92 1011.5
20191115064610 54 110 1.7 2.6 0.00 0.00 0.00 92 1011.5
20191115064111 54 68 1.7 2.6 0.00 0.00 0.00 92 1011.5
20191115063611 54 86 0.9 2.6 0.00 0.00 0.00 92 1011.5
20191115063111 54 127 1.7 2.6 0.00 0.00 0.00 92 1011.5
20191115062610 54 115 1.7 2.6 0.00 0.00 0.00 93 1011.3
20191115062110 54 122 1.7 5.2 0.00 0.00 0.00 93 1011.3
20191115061611 53 177 2.6 4.3 0.00 0.00 0.00 93 1011.3
20191115061110 53 185 2.6 5.2 0.00 0.00 0.00 93 1010.7
20191115060611 52 186 4.3 5.2 0.00 0.00 0.00 93 1010.7
20191115060112 51 149 1.7 2.6 0.00 0.00 0.00 92 1010.7
20191115055610 51 101 0.9 2.6 0.00 0.00 0.00 92 1010.7
20191115055111 51 87 1.7 4.3 0.00 0.00 0.00 92 1010.7
20191115054611 52 63 2.6 5.2 0.00 0.00 0.00 92 1010.7
20191115054111 52 66 4.3 6.1 0.00 0.00 0.00 93 1010.7
20191115053611 52 59 4.3 6.1 0.00 0.00 0.00 93 1010.7
20191115053110 52 82 2.6 5.2 0.00 0.00 0.00 93 1010.7
20191115052611 51 63 2.6 5.2 0.00 0.00 0.00 93 1010.7
20191115052111 51 61 1.7 5.2 0.00 0.00 0.00 93 1010.7
20191115051611 51 107 2.6 4.3 0.00 0.00 0.00 93 1010.7
20191115051110 51 119 2.6 4.3 0.00 0.00 0.00 93 1010.7
20191115050610 50 98 1.7 4.3 0.00 0.00 0.00 93 1010.7
20191115050113 50 63 1.7 4.3 0.00 0.00 0.00 93 1010.7
20191115045611 50 65 1.7 2.6 0.00 0.00 0.00 93 1010.7
20191115045111 50 63 0.9 2.6 0.00 0.00 0.00 93 1010.7
20191115044611 50 74 1.7 2.6 0.00 0.00 0.00 93 1010.3
20191115044111 50 58 0.9 1.7 0.00 0.00 0.00 92 1010.3
20191115043611 50 62 0.9 2.6 0.00 0.00 0.00 92 1010.3
20191115043111 50 73 0.9 2.6 0.00 0.00 0.00 92 1010.3
20191115042611 50 78 1.7 2.6 0.00 0.00 0.00 93 1010.4
20191115042111 50 53 0.9 2.6 0.00 0.00 0.00 93 1010.4
20191115041611 50 81 0.9 2.6 0.00 0.00 0.00 92 1010.4
20191115041111 50 109 1.7 2.6 0.00 0.00 0.00 92 1010.4
20191115040611 50 107 1.7 2.6 0.00 0.00 0.00 92 1010.4
20191115040111 50 108 1.7 2.6 0.00 0.00 0.00 92 1010.4
20191115035611 50 126 0.9 1.7 0.00 0.00 0.00 92 1010.4
20191115035111 49 136 1.7 2.6 0.00 0.00 0.00 91 1010.3
20191115034611 50 165 1.7 2.6 0.00 0.00 0.00 92 1010.3
20191115034111 50 163 1.7 2.6 0.00 0.00 0.00 92 1010.3
20191115033611 50 171 1.7 2.6 0.00 0.00 0.00 92 1010.3
20191115033111 49 117 1.7 2.6 0.00 0.00 0.00 92 1010.3
20191115032611 49 80 0.9 1.7 0.00 0.00 0.00 91 1010.3
20191115032111 49 60 0.9 2.6 0.00 0.00 0.00 91 1010.5
20191115031611 49 62 1.7 2.6 0.00 0.00 0.00 91 1010.5
20191115031111 49 90 0.0 0.9 0.00 0.00 0.00 91 1010.5
20191115030610 49 90 0.0 0.9 0.00 0.00 0.00 91 1010.5
20191115030111 49 90 0.0 0.9 0.00 0.00 0.00 91 1010.6
20191115025611 49 90 0.0 0.9 0.00 0.00 0.00 91 1010.2
20191115025110 49 90 0.0 0.9 0.00 0.00 0.00 91 1010.2
20191115024611 49 90 0.9 1.7 0.00 0.00 0.00 91 1010.2
20191115024110 49 78 0.9 1.7 0.00 0.00 0.00 91 1010.2
20191115023611 49 68 0.9 0.9 0.00 0.00 0.00 90 1010.2
20191115023110 50 66 0.0 0.9 0.00 0.00 0.00 91 1010.2
20191115022610 50 80 0.0 1.7 0.00 0.00 0.00 91 1010.6
20191115022111 50 87 0.9 1.7 0.00 0.00 0.00 91 1010.6
20191115021610 50 102 1.7 2.6 0.00 0.00 0.00 91 1010.6
20191115021111 49 124 1.7 2.6 0.00 0.00 0.00 91 1010.6
20191115020611 49 154 0.9 2.6 0.00 0.00 0.00 90 1010.6
20191115020112 49 174 1.7 2.6 0.00 0.00 0.00 90 1010.6
20191115015611 49 192 1.7 2.6 0.00 0.00 0.00 90 1010.6
20191115015111 50 145 0.9 1.7 0.00 0.00 0.00 91 1010.2
20191115014611 49 97 0.9 1.7 0.00 0.00 0.00 90 1010.2
20191115014111 48 60 0.0 1.7 0.00 0.00 0.00 89 1010.2
20191115013610 48 60 0.0 0.9 0.00 0.00 0.00 89 1010.2
20191115013111 49 60 0.0 0.9 0.00 0.00 0.00 89 1010.2
20191115012610 49 60 0.0 2.6 0.00 0.00 0.00 89 1010.2
20191115012111 50 63 0.9 2.6 0.00 0.00 0.00 89 1010.2
20191115011610 50 70 0.9 2.6 0.00 0.00 0.00 89 1010.2
20191115011110 51 52 0.0 1.7 0.00 0.00 0.00 89 1010.1
20191115010611 51 56 0.9 2.6 0.00 0.00 0.00 89 1010.2
20191115010112 51 68 0.9 2.6 0.00 0.00 0.00 90 1010.2
20191115005610 50 86 0.9 1.7 0.00 0.00 0.00 90 1010.4